Date String (YYYY-MM-DD hh:mm:ss) UTC,Instrument flags,Ambient pressure (hPa),Sample flow (lpm),Bypass flow (lpm),Sample temperature (°C),Ambient temperature (°C),ASC tube jacket temperature (°C),LED temperature (°C),Box temperature (°C),Sample RH (%),Span deviation,Mass concentration (μg/m³),Mass concentration (μg/m³),Mass concentration (μg/m³)
DateTimeUTC,F1_M11,P_M11,Q1_M11,Q2_M11,T1_M11,T2_M11,T3_M11,T4_M11,T5_M11,U1_M11,ZSPAN_M11,X2_M11,X0_M11,X1_M11
2023-02-22 10:00:00,,0806.2,5.00,0.00,22.4,20.7,00.0,31.2,24.0,10.0,0000.0,0003.78,0006.20,0003.45
2023-02-22 10:01:00,,0806.2,4.98,0.00,22.4,20.7,00.0,31.2,24.0,10.0,0000.0,0003.78,0006.03,0003.46
2023-02-22 10:02:00,,0806.2,5.01,0.00,22.4,21.6,00.0,31.2,24.2,09.9,0000.0,0003.79,0006.02,0003.47
2023-02-22 10:03:00,,0806.2,4.99,0.00,22.6,22.6,00.0,31.2,24.5,09.9,0000.0,0003.79,0005.97,0003.48
2023-02-22 10:04:00,,0806.2,4.99,0.00,22.7,23.0,00.0,31.2,24.6,09.8,0000.0,0003.79,0005.93,0003.48
2023-02-22 10:05:00,,0806.2,5.01,0.00,22.7,22.5,00.0,31.3,24.6,09.8,0000.0,0003.82,0006.04,0003.49
2023-02-22 10:06:00,,0806.2,5.00,0.00,22.7,22.1,00.0,31.3,24.5,09.8,0000.0,0003.84,0006.10,0003.49
2023-02-22 10:07:00,,0806.2,5.00,0.00,22.6,21.7,00.0,31.3,24.4,09.8,0000.0,0003.87,0006.15,0003.51
2023-02-22 10:08:00,,0806.2,5.00,0.00,22.6,21.4,00.0,31.3,24.3,09.8,0000.0,0003.89,0006.23,0003.52
2023-02-22 10:09:00,,0806.2,5.00,0.00,22.6,21.2,00.0,31.3,24.2,09.8,0000.0,0003.94,0006.39,0003.54
2023-02-22 10:10:00,,0806.2,5.00,0.00,22.5,21.1,00.0,31.3,24.2,09.8,0000.0,0003.95,0006.51,0003.55
2023-02-22 10:11:00,,0806.2,5.00,0.00,22.5,20.9,00.0,31.3,24.2,09.8,0000.0,0003.97,0007.46,0003.56
2023-02-22 10:12:00,,0806.2,5.00,0.00,22.5,20.8,00.0,31.3,24.1,09.8,0000.0,0003.98,0007.53,0003.57
2023-02-22 10:13:00,,0806.3,5.01,0.00,22.4,20.6,00.0,31.3,24.0,09.8,0000.0,0004.00,0008.21,0003.57
2023-02-22 10:14:00,,0806.4,5.00,0.00,22.4,21.3,00.0,31.2,24.1,09.7,0000.0,0004.02,0008.54,0003.57
2023-02-22 10:15:00,,0806.4,5.00,0.00,22.6,22.3,00.0,31.2,24.4,09.6,0000.0,0004.03,0008.56,0003.57
2023-02-22 10:16:00,,0806.5,5.02,0.00,22.6,22.9,00.0,31.3,24.6,09.5,0000.0,0004.00,0008.49,0003.56
2023-02-22 10:17:00,,0806.5,5.01,0.00,22.7,22.5,00.0,31.3,24.5,09.5,0000.0,0003.97,0008.47,0003.56
2023-02-22 10:18:00,,0806.5,4.99,0.00,22.7,22.0,00.0,31.3,24.4,09.5,0000.0,0003.96,0008.66,0003.55
2023-02-22 10:19:00,,0806.4,5.00,0.00,22.6,21.6,00.0,31.3,24.2,09.5,0000.0,0003.95,0009.04,0003.54
2023-02-22 10:20:00,,0806.4,5.00,0.00,22.6,21.3,00.0,31.3,24.2,09.5,0000.0,0003.93,0009.00,0003.52
2023-02-22 10:21:00,,0806.5,4.99,0.00,22.5,21.0,00.0,31.3,24.1,09.5,0000.0,0003.91,0008.93,0003.52
2023-02-22 10:22:00,,0806.5,5.00,0.00,22.5,20.8,00.0,31.3,24.0,09.5,0000.0,0003.93,0008.55,0003.52
2023-02-22 10:23:00,,0806.5,5.00,0.00,22.4,20.6,00.0,31.3,23.9,09.5,0000.0,0003.93,0008.34,0003.52
2023-02-22 10:24:00,,0806.4,5.01,0.00,22.4,21.0,00.0,31.3,24.1,09.5,0000.0,0003.92,0007.80,0003.53
2023-02-22 10:25:00,,0806.4,5.00,0.00,22.5,22.1,00.0,31.3,24.3,09.5,0000.0,0003.91,0007.54,0003.54
2023-02-22 10:26:00,,0806.5,5.01,0.00,22.6,23.0,00.0,31.3,24.6,09.4,0000.0,0003.89,0007.61,0003.53
2023-02-22 10:27:00,,0806.5,5.01,0.00,22.7,23.2,00.0,31.3,24.6,09.4,0000.0,0003.91,0007.64,0003.55
2023-02-22 10:28:00,,0806.6,5.02,0.00,22.7,22.6,00.0,31.3,24.5,09.3,0000.0,0003.94,0007.67,0003.56
2023-02-22 10:29:00,,0806.6,5.01,0.00,22.7,22.0,00.0,31.4,24.4,09.3,0000.0,0004.01,0007.61,0003.58
2023-02-22 10:30:00,,0806.6,4.99,0.00,22.7,21.6,00.0,31.4,24.2,09.3,0000.0,0004.03,0007.33,0003.60
2023-02-22 10:31:00,,0806.6,5.00,0.00,22.6,21.2,00.0,31.4,24.1,09.3,0000.0,0004.05,0007.43,0003.61
2023-02-22 10:32:00,,0806.6,4.99,0.00,22.6,20.9,00.0,31.4,24.0,09.4,0000.0,0004.03,0007.43,0003.60
2023-02-22 10:33:00,,0806.7,5.02,0.00,22.5,20.7,00.0,31.3,23.9,09.4,0000.0,0004.00,0007.34,0003.60
2023-02-22 10:34:00,,0806.7,5.00,0.00,22.4,20.6,00.0,31.3,23.9,09.4,0000.0,0004.01,0007.64,0003.59
2023-02-22 10:35:00,,0806.7,4.99,0.00,22.5,21.4,00.0,31.3,24.1,09.4,0000.0,0004.05,0008.01,0003.58
2023-02-22 10:36:00,,0806.7,5.00,0.00,22.6,22.4,00.0,31.3,24.4,09.3,0000.0,0004.07,0007.94,0003.55
2023-02-22 10:37:00,,0806.7,4.99,0.00,22.7,22.9,00.0,31.3,24.6,09.2,0000.0,0004.10,0007.95,0003.55
2023-02-22 10:38:00,,0806.7,5.00,0.00,22.7,22.5,00.0,31.3,24.5,09.2,0000.0,0004.09,0007.92,0003.54
2023-02-22 10:39:00,,0806.6,4.98,0.00,22.7,22.0,00.0,31.4,24.4,09.1,0000.0,0004.08,0007.90,0003.53
2023-02-22 10:40:00,,0806.6,5.01,0.00,22.6,21.6,00.0,31.4,24.3,09.1,0000.0,0004.06,0007.86,0003.51
2023-02-22 10:41:00,,0806.6,5.01,0.00,22.6,21.3,00.0,31.4,24.2,09.2,0000.0,0004.05,0007.85,0003.49
2023-02-22 10:42:00,,0806.6,5.01,0.00,22.6,21.0,00.0,31.4,24.1,09.2,0000.0,0004.04,0007.80,0003.48
2023-02-22 10:43:00,,0806.5,5.01,0.00,22.5,20.9,00.0,31.3,24.0,09.2,0000.0,0004.05,0007.98,0003.47
2023-02-22 10:44:00,,0806.5,5.00,0.00,22.5,20.7,00.0,31.3,24.0,09.2,0000.0,0004.04,0008.08,0003.47
2023-02-22 10:45:00,,0806.5,5.00,0.00,22.5,20.9,00.0,31.3,24.0,09.2,0000.0,0004.01,0007.84,0003.44
2023-02-22 10:46:00,,0806.6,5.00,0.00,22.5,21.9,00.0,31.3,24.3,09.1,0000.0,0003.98,0007.54,0003.44
2023-02-22 10:47:00,,0806.7,5.01,0.00,22.6,22.9,00.0,31.3,24.5,09.1,0000.0,0003.96,0007.62,0003.45
2023-02-22 10:48:00,,0806.8,4.99,0.00,22.7,23.0,00.0,31.3,24.6,09.0,0000.0,0003.93,0007.59,0003.44
2023-02-22 10:49:00,,0806.8,5.00,0.00,22.7,22.4,00.0,31.4,24.5,09.0,0000.0,0003.95,0007.75,0003.45
2023-02-22 10:50:00,,0806.9,5.00,0.00,22.7,22.0,00.0,31.4,24.4,09.0,0000.0,0003.98,0007.93,0003.45
2023-02-22 10:51:00,,0806.8,4.99,0.00,22.6,21.6,00.0,31.4,24.3,09.0,0000.0,0003.95,0007.80,0003.46
2023-02-22 10:52:00,,0806.8,5.00,0.00,22.6,21.2,00.0,31.4,24.2,09.0,0000.0,0003.97,0007.86,0003.47
2023-02-22 10:53:00,,0806.8,5.00,0.00,22.6,20.9,00.0,31.4,24.1,09.0,0000.0,0003.96,0007.89,0003.46
2023-02-22 10:54:00,,0806.8,5.01,0.00,22.5,20.7,00.0,31.4,24.1,09.1,0000.0,0003.98,0007.80,0003.48
2023-02-22 10:55:00,,0806.8,5.01,0.00,22.5,20.8,00.0,31.3,24.1,09.1,0000.0,0004.01,0007.73,0003.49
2023-02-22 10:56:00,,0807.0,5.00,0.00,22.6,21.8,00.0,31.3,24.3,09.0,0000.0,0004.03,0007.59,0003.52
2023-02-22 10:57:00,,0807.0,4.98,0.00,22.7,22.8,00.0,31.3,24.6,09.0,0000.0,0004.04,0007.63,0003.53
2023-02-22 10:58:00,,0807.0,5.01,0.00,22.8,23.0,00.0,31.3,24.6,09.0,0000.0,0004.04,0007.49,0003.54
2023-02-22 10:59:00,,0807.0,5.03,0.00,22.8,22.4,00.0,31.4,24.5,09.0,0000.0,0004.07,0007.59,0003.57
